owner,sensor,date,latitude,longitude,air_pressure(mBar),qcFlag 
TABS,ioos:station:wmo:42045:1,2017-12-01T00:00:00Z,26.2168,-96.4998,1019.08,11111222 
TABS,ioos:station:wmo:42045:1,2017-12-01T00:30:00Z,26.2168,-96.4998,1019.42,11111222 
TABS,ioos:station:wmo:42045:1,2017-12-01T01:00:00Z,26.2168,-96.4998,1019.7,11111222 
TABS,ioos:station:wmo:42045:1,2017-12-01T01:30:00Z,26.2168,-96.4998,1019.76,11111222 
TABS,ioos:station:wmo:42045:1,2017-12-01T02:00:00Z,26.2168,-96.4998,1020.18,11111222 
TABS,ioos:station:wmo:42045:1,2017-12-01T02:30:00Z,26.2168,-96.4998,1020.26,11111222 
TABS,ioos:station:wmo:42045:1,2017-12-01T03:00:00Z,26.2168,-96.4998,1020.36,11111222 
TABS,ioos:station:wmo:42045:1,2017-12-01T03:30:00Z,26.2168,-96.4998,1020.5,11111222 
TABS,ioos:station:wmo:42045:1,2017-12-01T04:00:00Z,26.2168,-96.4998,1020.42,11111222 
TABS,ioos:station:wmo:42045:1,2017-12-01T04:30:00Z,26.2168,-96.4998,1020.65,11111222 
TABS,ioos:station:wmo:42045:1,2017-12-01T05:00:00Z,26.2168,-96.4998,1020.68,11111222 
TABS,ioos:station:wmo:42045:1,2017-12-01T05:30:00Z,26.2168,-96.4998,1020.72,11111222 
TABS,ioos:station:wmo:42045:1,2017-12-01T06:00:00Z,26.2168,-96.4998,1020.56,11111222 
TABS,ioos:station:wmo:42045:1,2017-12-01T06:30:00Z,26.2168,-96.4998,1020.23,11111222 
TABS,ioos:station:wmo:42045:1,2017-12-01T07:00:00Z,26.2168,-96.4998,1020.07,11111222 
TABS,ioos:station:wmo:42045:1,2017-12-01T07:30:00Z,26.2168,-96.4998,1020.12,11111222 
TABS,ioos:station:wmo:42045:1,2017-12-01T08:00:00Z,26.2168,-96.4998,1019.87,11111222 
TABS,ioos:station:wmo:42045:1,2017-12-01T08:30:00Z,26.2168,-96.4998,1019.62,11111222 
TABS,ioos:station:wmo:42045:1,2017-12-01T09:00:00Z,26.2168,-96.4998,1019.5,11111222 
TABS,ioos:station:wmo:42045:1,2017-12-01T09:30:00Z,26.2168,-96.4998,1019.68,11111222 
TABS,ioos:station:wmo:42045:1,2017-12-01T10:00:00Z,26.2168,-96.4998,1019.78,11111222 
TABS,ioos:station:wmo:42045:1,2017-12-01T10:30:00Z,26.2168,-96.4998,1019.59,11111222 
TABS,ioos:station:wmo:42045:1,2017-12-01T11:00:00Z,26.2168,-96.4998,1019.64,11111222 
TABS,ioos:station:wmo:42045:1,2017-12-01T11:30:00Z,26.2168,-96.4998,1019.95,11111222 
TABS,ioos:station:wmo:42045:1,2017-12-01T12:00:00Z,26.2168,-96.4998,1020.14,11111222 
TABS,ioos:station:wmo:42045:1,2017-12-01T12:30:00Z,26.2168,-96.4998,1020.29,11111222 
TABS,ioos:station:wmo:42045:1,2017-12-01T13:00:00Z,26.2168,-96.4998,1020.26,11111222 
TABS,ioos:station:wmo:42045:1,2017-12-01T13:30:00Z,26.2168,-96.4998,1020.43,11111222 
TABS,ioos:station:wmo:42045:1,2017-12-01T14:00:00Z,26.2168,-96.4998,1020.7,11111222 
TABS,ioos:station:wmo:42045:1,2017-12-01T14:30:00Z,26.2168,-96.4998,1021.07,11111222 
TABS,ioos:station:wmo:42045:1,2017-12-01T15:00:00Z,26.2168,-96.4998,1020.96,11111222 
TABS,ioos:station:wmo:42045:1,2017-12-01T15:30:00Z,26.2168,-96.4998,1021.05,11111222 
TABS,ioos:station:wmo:42045:1,2017-12-01T16:00:00Z,26.2168,-96.4998,1021.37,11111222 
TABS,ioos:station:wmo:42045:1,2017-12-01T16:30:00Z,26.2168,-96.4998,1021.22,11111222 
TABS,ioos:station:wmo:42045:1,2017-12-01T17:00:00Z,26.2168,-96.4998,1021.05,11111222 
TABS,ioos:station:wmo:42045:1,2017-12-01T17:30:00Z,26.2168,-96.4998,1020.76,11111222 
TABS,ioos:station:wmo:42045:1,2017-12-01T18:00:00Z,26.2168,-96.4998,1020.3,11111222 
TABS,ioos:station:wmo:42045:1,2017-12-01T18:30:00Z,26.2168,-96.4998,1020.05,11111222 
TABS,ioos:station:wmo:42045:1,2017-12-01T19:00:00Z,26.2168,-96.4998,1019.35,11111222 
TABS,ioos:station:wmo:42045:1,2017-12-01T19:30:00Z,26.2168,-96.4998,1018.91,11111222 
TABS,ioos:station:wmo:42045:1,2017-12-01T20:00:00Z,26.2168,-96.4998,1018.5,11111222 
TABS,ioos:station:wmo:42045:1,2017-12-01T20:30:00Z,26.2168,-96.4998,1018.32,11111222 
TABS,ioos:station:wmo:42045:1,2017-12-01T21:00:00Z,26.2168,-96.4998,1018.27,11111222 
TABS,ioos:station:wmo:42045:1,2017-12-01T21:30:00Z,26.2168,-96.4998,1018.08,11111222 
TABS,ioos:station:wmo:42045:1,2017-12-01T22:00:00Z,26.2168,-96.4998,1018.04,11111222 
TABS,ioos:station:wmo:42045:1,2017-12-01T22:30:00Z,26.2168,-96.4998,1018.26,11111222 
TABS,ioos:station:wmo:42045:1,2017-12-01T23:00:00Z,26.2168,-96.4998,1018.17,11111222 
TABS,ioos:station:wmo:42045:1,2017-12-01T23:30:00Z,26.2168,-96.4998,1018.43,11111222 
TABS,ioos:station:wmo:42045:1,2017-12-02T00:00:00Z,26.2168,-96.4998,1018.62,11111222 
TABS,ioos:station:wmo:42045:1,2017-12-02T00:30:00Z,26.2168,-96.4998,1018.81,11111222 
TABS,ioos:station:wmo:42045:1,2017-12-02T01:00:00Z,26.2168,-96.4998,1019.06,11111222 
TABS,ioos:station:wmo:42045:1,2017-12-02T01:30:00Z,26.2168,-96.4998,1019.24,11111222 
TABS,ioos:station:wmo:42045:1,2017-12-02T02:00:00Z,26.2168,-96.4998,1019.41,11111222 
TABS,ioos:station:wmo:42045:1,2017-12-02T02:30:00Z,26.2168,-96.4998,1019.73,11111222 
TABS,ioos:station:wmo:42045:1,2017-12-02T03:00:00Z,26.2168,-96.4998,1019.87,11111222 
TABS,ioos:station:wmo:42045:1,2017-12-02T03:30:00Z,26.2168,-96.4998,1019.97,11111222 
TABS,ioos:station:wmo:42045:1,2017-12-02T04:00:00Z,26.2168,-96.4998,1020.0,11111222 
TABS,ioos:station:wmo:42045:1,2017-12-02T04:30:00Z,26.2168,-96.4998,1019.76,11111222 
TABS,ioos:station:wmo:42045:1,2017-12-02T05:00:00Z,26.2168,-96.4998,1019.52,11111222 
TABS,ioos:station:wmo:42045:1,2017-12-02T05:30:00Z,26.2168,-96.4998,1019.46,11111222 
TABS,ioos:station:wmo:42045:1,2017-12-02T06:00:00Z,26.2168,-96.4998,1019.2,11111222 
TABS,ioos:station:wmo:42045:1,2017-12-02T06:30:00Z,26.2168,-96.4998,1019.0,11111222 
TABS,ioos:station:wmo:42045:1,2017-12-02T07:00:00Z,26.2168,-96.4998,1018.73,11111222 
TABS,ioos:station:wmo:42045:1,2017-12-02T07:30:00Z,26.2168,-96.4998,1018.55,11111222 
TABS,ioos:station:wmo:42045:1,2017-12-02T08:00:00Z,26.2168,-96.4998,1018.3,11111222 
TABS,ioos:station:wmo:42045:1,2017-12-02T08:30:00Z,26.2168,-96.4998,1018.03,11111222 
TABS,ioos:station:wmo:42045:1,2017-12-02T09:00:00Z,26.2168,-96.4998,1017.86,11111222 
TABS,ioos:station:wmo:42045:1,2017-12-02T09:30:00Z,26.2168,-96.4998,1017.71,11111222 
TABS,ioos:station:wmo:42045:1,2017-12-02T10:00:00Z,26.2168,-96.4998,1017.61,11111222 
TABS,ioos:station:wmo:42045:1,2017-12-02T10:30:00Z,26.2168,-96.4998,1017.46,11111222 
TABS,ioos:station:wmo:42045:1,2017-12-02T11:00:00Z,26.2168,-96.4998,1017.46,11111222 
TABS,ioos:station:wmo:42045:1,2017-12-02T11:30:00Z,26.2168,-96.4998,1017.72,11111222 
TABS,ioos:station:wmo:42045:1,2017-12-02T12:00:00Z,26.2168,-96.4998,1017.94,11111222 
TABS,ioos:station:wmo:42045:1,2017-12-02T12:30:00Z,26.2168,-96.4998,1018.26,11111222 
TABS,ioos:station:wmo:42045:1,2017-12-02T13:00:00Z,26.2168,-96.4998,1018.63,11111222 
TABS,ioos:station:wmo:42045:1,2017-12-02T13:30:00Z,26.2168,-96.4998,1018.85,11111222 
TABS,ioos:station:wmo:42045:1,2017-12-02T14:00:00Z,26.2168,-96.4998,1019.15,11111222 
TABS,ioos:station:wmo:42045:1,2017-12-02T14:30:00Z,26.2168,-96.4998,1019.43,11111222 
TABS,ioos:station:wmo:42045:1,2017-12-02T15:00:00Z,26.2168,-96.4998,1019.72,11111222 
TABS,ioos:station:wmo:42045:1,2017-12-02T15:30:00Z,26.2168,-96.4998,1019.95,11111222 
TABS,ioos:station:wmo:42045:1,2017-12-02T16:00:00Z,26.2168,-96.4998,1019.84,11111222 
TABS,ioos:station:wmo:42045:1,2017-12-02T16:30:00Z,26.2168,-96.4998,1019.64,11111222 
TABS,ioos:station:wmo:42045:1,2017-12-02T17:00:00Z,26.2168,-96.4998,1019.32,11111222 
TABS,ioos:station:wmo:42045:1,2017-12-02T17:30:00Z,26.2168,-96.4998,1019.07,11111222 
TABS,ioos:station:wmo:42045:1,2017-12-02T18:00:00Z,26.2168,-96.4998,1018.75,11111222 
TABS,ioos:station:wmo:42045:1,2017-12-02T18:30:00Z,26.2168,-96.4998,1018.29,11111222 
TABS,ioos:station:wmo:42045:1,2017-12-02T19:00:00Z,26.2168,-96.4998,1018.08,11111222 
TABS,ioos:station:wmo:42045:1,2017-12-02T19:30:00Z,26.2168,-96.4998,1017.66,11111222 
TABS,ioos:station:wmo:42045:1,2017-12-02T20:00:00Z,26.2168,-96.4998,1017.27,11111222 
TABS,ioos:station:wmo:42045:1,2017-12-02T20:30:00Z,26.2168,-96.4998,1017.19,11111222 
TABS,ioos:station:wmo:42045:1,2017-12-02T21:00:00Z,26.2168,-96.4998,1017.08,11111222 
TABS,ioos:station:wmo:42045:1,2017-12-02T21:30:00Z,26.2168,-96.4998,1016.98,11111222 
TABS,ioos:station:wmo:42045:1,2017-12-02T22:00:00Z,26.2168,-96.4998,1017.13,11111222 
TABS,ioos:station:wmo:42045:1,2017-12-02T22:30:00Z,26.2168,-96.4998,1017.07,11111222 
TABS,ioos:station:wmo:42045:1,2017-12-02T23:00:00Z,26.2168,-96.4998,1016.94,11111222 
TABS,ioos:station:wmo:42045:1,2017-12-02T23:30:00Z,26.2168,-96.4998,1016.89,11111222 
TABS,ioos:station:wmo:42045:1,2017-12-03T00:00:00Z,26.2168,-96.4998,1017.35,11111222 
TABS,ioos:station:wmo:42045:1,2017-12-03T00:30:00Z,26.2168,-96.4998,1017.63,11111222 
TABS,ioos:station:wmo:42045:1,2017-12-03T01:00:00Z,26.2168,-96.4998,1017.92,11111222 
TABS,ioos:station:wmo:42045:1,2017-12-03T01:30:00Z,26.2168,-96.4998,1018.38,11111222 
TABS,ioos:station:wmo:42045:1,2017-12-03T02:00:00Z,26.2168,-96.4998,1018.68,11111222 
TABS,ioos:station:wmo:42045:1,2017-12-03T02:30:00Z,26.2168,-96.4998,1019.06,11111222 
TABS,ioos:station:wmo:42045:1,2017-12-03T03:00:00Z,26.2168,-96.4998,1019.14,11111222 
TABS,ioos:station:wmo:42045:1,2017-12-03T03:30:00Z,26.2168,-96.4998,1018.87,11111222 
TABS,ioos:station:wmo:42045:1,2017-12-03T04:00:00Z,26.2168,-96.4998,1018.93,11111222 
TABS,ioos:station:wmo:42045:1,2017-12-03T04:30:00Z,26.2168,-96.4998,1018.92,11111222 
TABS,ioos:station:wmo:42045:1,2017-12-03T05:00:00Z,26.2168,-96.4998,1018.79,11111222 
TABS,ioos:station:wmo:42045:1,2017-12-03T05:30:00Z,26.2168,-96.4998,1018.3,11111222 
TABS,ioos:station:wmo:42045:1,2017-12-03T06:00:00Z,26.2168,-96.4998,1018.14,11111222 
TABS,ioos:station:wmo:42045:1,2017-12-03T06:30:00Z,26.2168,-96.4998,1018.04,11111222 
TABS,ioos:station:wmo:42045:1,2017-12-03T07:00:00Z,26.2168,-96.4998,1017.99,11111222 
TABS,ioos:station:wmo:42045:1,2017-12-03T07:30:00Z,26.2168,-96.4998,1017.69,11111222 
TABS,ioos:station:wmo:42045:1,2017-12-03T08:00:00Z,26.2168,-96.4998,1017.44,11111222 
TABS,ioos:station:wmo:42045:1,2017-12-03T08:30:00Z,26.2168,-96.4998,1017.32,11111222 
TABS,ioos:station:wmo:42045:1,2017-12-03T09:00:00Z,26.2168,-96.4998,1017.14,11111222 
TABS,ioos:station:wmo:42045:1,2017-12-03T09:30:00Z,26.2168,-96.4998,1016.78,11111222 
TABS,ioos:station:wmo:42045:1,2017-12-03T10:00:00Z,26.2168,-96.4998,1016.78,11111222 
TABS,ioos:station:wmo:42045:1,2017-12-03T10:30:00Z,26.2168,-96.4998,1016.61,11111222 
TABS,ioos:station:wmo:42045:1,2017-12-03T11:00:00Z,26.2168,-96.4998,1016.83,11111222 
TABS,ioos:station:wmo:42045:1,2017-12-03T11:30:00Z,26.2168,-96.4998,1016.97,11111222 
TABS,ioos:station:wmo:42045:1,2017-12-03T12:00:00Z,26.2168,-96.4998,1017.29,11111222 
TABS,ioos:station:wmo:42045:1,2017-12-03T12:30:00Z,26.2168,-96.4998,1017.57,11111222 
TABS,ioos:station:wmo:42045:1,2017-12-03T13:00:00Z,26.2168,-96.4998,1017.73,11111222 
TABS,ioos:station:wmo:42045:1,2017-12-03T13:30:00Z,26.2168,-96.4998,1018.0,11111222 
TABS,ioos:station:wmo:42045:1,2017-12-03T14:00:00Z,26.2168,-96.4998,1018.21,11111222 
TABS,ioos:station:wmo:42045:1,2017-12-03T14:30:00Z,26.2168,-96.4998,1018.23,11111222 
TABS,ioos:station:wmo:42045:1,2017-12-03T15:00:00Z,26.2168,-96.4998,1018.32,11111222 
TABS,ioos:station:wmo:42045:1,2017-12-03T15:30:00Z,26.2168,-96.4998,1018.48,11111222 
TABS,ioos:station:wmo:42045:1,2017-12-03T16:00:00Z,26.2168,-96.4998,1018.46,11111222 
TABS,ioos:station:wmo:42045:1,2017-12-03T16:30:00Z,26.2168,-96.4998,1018.2,11111222 
TABS,ioos:station:wmo:42045:1,2017-12-03T17:00:00Z,26.2168,-96.4998,1018.32,11111222 
TABS,ioos:station:wmo:42045:1,2017-12-03T17:30:00Z,26.2168,-96.4998,1017.79,11111222 
TABS,ioos:station:wmo:42045:1,2017-12-03T18:00:00Z,26.2168,-96.4998,1016.87,11111222 
TABS,ioos:station:wmo:42045:1,2017-12-03T18:30:00Z,26.2168,-96.4998,1016.75,11111222 
TABS,ioos:station:wmo:42045:1,2017-12-03T19:00:00Z,26.2168,-96.4998,1015.66,11111222 
TABS,ioos:station:wmo:42045:1,2017-12-03T19:30:00Z,26.2168,-96.4998,1015.2,11111222 
TABS,ioos:station:wmo:42045:1,2017-12-03T20:00:00Z,26.2168,-96.4998,1015.31,11111222 
TABS,ioos:station:wmo:42045:1,2017-12-03T20:30:00Z,26.2168,-96.4998,1015.05,11111222 
TABS,ioos:station:wmo:42045:1,2017-12-03T21:00:00Z,26.2168,-96.4998,1014.89,11111222 
TABS,ioos:station:wmo:42045:1,2017-12-03T21:30:00Z,26.2168,-96.4998,1014.41,11111222 
TABS,ioos:station:wmo:42045:1,2017-12-03T22:00:00Z,26.2168,-96.4998,1014.39,11111222 
TABS,ioos:station:wmo:42045:1,2017-12-03T22:30:00Z,26.2168,-96.4998,1014.44,11111222 
TABS,ioos:station:wmo:42045:1,2017-12-03T23:00:00Z,26.2168,-96.4998,1014.24,11111222 
TABS,ioos:station:wmo:42045:1,2017-12-03T23:30:00Z,26.2168,-96.4998,1014.4,11111222 
TABS,ioos:station:wmo:42045:1,2017-12-04T00:00:00Z,26.2168,-96.4998,1013.7,11111222 
TABS,ioos:station:wmo:42045:1,2017-12-04T00:30:00Z,26.2168,-96.4998,1014.28,11111222 
TABS,ioos:station:wmo:42045:1,2017-12-04T01:00:00Z,26.2168,-96.4998,1014.09,11111222 
TABS,ioos:station:wmo:42045:1,2017-12-04T01:30:00Z,26.2168,-96.4998,1014.2,11111222 
TABS,ioos:station:wmo:42045:1,2017-12-04T02:00:00Z,26.2168,-96.4998,1014.78,11111222 
TABS,ioos:station:wmo:42045:1,2017-12-04T02:30:00Z,26.2168,-96.4998,1015.14,11111222 
TABS,ioos:station:wmo:42045:1,2017-12-04T03:00:00Z,26.2168,-96.4998,1015.09,11111222 
TABS,ioos:station:wmo:42045:1,2017-12-04T03:30:00Z,26.2168,-96.4998,1015.11,11111222 
TABS,ioos:station:wmo:42045:1,2017-12-04T04:00:00Z,26.2168,-96.4998,1015.15,11111222 
TABS,ioos:station:wmo:42045:1,2017-12-04T04:30:00Z,26.2168,-96.4998,1015.38,11111222 
TABS,ioos:station:wmo:42045:1,2017-12-04T05:00:00Z,26.2168,-96.4998,1014.88,11111222 
TABS,ioos:station:wmo:42045:1,2017-12-04T05:30:00Z,26.2168,-96.4998,1014.84,11111222 
TABS,ioos:station:wmo:42045:1,2017-12-04T06:00:00Z,26.2168,-96.4998,1014.62,11111222 
TABS,ioos:station:wmo:42045:1,2017-12-04T06:30:00Z,26.2168,-96.4998,1014.31,11111222 
TABS,ioos:station:wmo:42045:1,2017-12-04T07:00:00Z,26.2168,-96.4998,1014.18,11111222 
TABS,ioos:station:wmo:42045:1,2017-12-04T07:30:00Z,26.2168,-96.4998,1013.79,11111222 
TABS,ioos:station:wmo:42045:1,2017-12-04T08:00:00Z,26.2168,-96.4998,1014.21,11111222 
TABS,ioos:station:wmo:42045:1,2017-12-04T08:30:00Z,26.2168,-96.4998,1013.42,11111222 
TABS,ioos:station:wmo:42045:1,2017-12-04T09:00:00Z,26.2168,-96.4998,1013.2,11111222 
TABS,ioos:station:wmo:42045:1,2017-12-04T09:30:00Z,26.2168,-96.4998,1013.26,11111222 
TABS,ioos:station:wmo:42045:1,2017-12-04T10:00:00Z,26.2168,-96.4998,1013.06,11111222 
TABS,ioos:station:wmo:42045:1,2017-12-04T10:30:00Z,26.2168,-96.4998,1013.06,11111222 
TABS,ioos:station:wmo:42045:1,2017-12-04T11:00:00Z,26.2168,-96.4998,1012.74,11111222 
TABS,ioos:station:wmo:42045:1,2017-12-04T11:30:00Z,26.2168,-96.4998,1012.75,11111222 
TABS,ioos:station:wmo:42045:1,2017-12-04T12:00:00Z,26.2168,-96.4998,1013.24,11111222 
TABS,ioos:station:wmo:42045:1,2017-12-04T12:30:00Z,26.2168,-96.4998,1013.42,11111222 
TABS,ioos:station:wmo:42045:1,2017-12-04T13:00:00Z,26.2168,-96.4998,1013.59,11111222 
TABS,ioos:station:wmo:42045:1,2017-12-04T13:30:00Z,26.2168,-96.4998,1013.6,11111222 
TABS,ioos:station:wmo:42045:1,2017-12-04T14:00:00Z,26.2168,-96.4998,1013.9,11111222 
TABS,ioos:station:wmo:42045:1,2017-12-04T14:30:00Z,26.2168,-96.4998,1014.25,11111222 
TABS,ioos:station:wmo:42045:1,2017-12-04T15:00:00Z,26.2168,-96.4998,1014.01,11111222 
TABS,ioos:station:wmo:42045:1,2017-12-04T15:30:00Z,26.2168,-96.4998,1014.85,11111222 
TABS,ioos:station:wmo:42045:1,2017-12-04T16:00:00Z,26.2168,-96.4998,1014.3,11111222 
TABS,ioos:station:wmo:42045:1,2017-12-04T16:30:00Z,26.2168,-96.4998,1014.05,11111222 
TABS,ioos:station:wmo:42045:1,2017-12-04T17:00:00Z,26.2168,-96.4998,1013.75,11111222 
TABS,ioos:station:wmo:42045:1,2017-12-04T17:30:00Z,26.2168,-96.4998,1013.58,11111222 
TABS,ioos:station:wmo:42045:1,2017-12-04T18:00:00Z,26.2168,-96.4998,1013.21,11111222 
TABS,ioos:station:wmo:42045:1,2017-12-04T18:30:00Z,26.2168,-96.4998,1012.81,11111222 
TABS,ioos:station:wmo:42045:1,2017-12-04T19:00:00Z,26.2168,-96.4998,1012.2,11111222 
TABS,ioos:station:wmo:42045:1,2017-12-04T19:30:00Z,26.2168,-96.4998,1011.93,11111222 
TABS,ioos:station:wmo:42045:1,2017-12-04T20:00:00Z,26.2168,-96.4998,1011.81,11111222 
TABS,ioos:station:wmo:42045:1,2017-12-04T20:30:00Z,26.2168,-96.4998,1012.21,11111222 
TABS,ioos:station:wmo:42045:1,2017-12-04T21:00:00Z,26.2168,-96.4998,1011.29,11111222 
TABS,ioos:station:wmo:42045:1,2017-12-04T21:30:00Z,26.2168,-96.4998,1011.49,11111222 
TABS,ioos:station:wmo:42045:1,2017-12-04T22:00:00Z,26.2168,-96.4998,1012.06,11111222 
TABS,ioos:station:wmo:42045:1,2017-12-04T22:30:00Z,26.2168,-96.4998,1011.7,11111222 
TABS,ioos:station:wmo:42045:1,2017-12-04T23:00:00Z,26.2168,-96.4998,1012.32,11111222 
TABS,ioos:station:wmo:42045:1,2017-12-04T23:30:00Z,26.2168,-96.4998,1012.21,11111222 
TABS,ioos:station:wmo:42045:1,2017-12-05T00:00:00Z,26.2168,-96.4998,1012.22,11111222 
TABS,ioos:station:wmo:42045:1,2017-12-05T00:30:00Z,26.2168,-96.4998,1012.95,11111222 
TABS,ioos:station:wmo:42045:1,2017-12-05T01:00:00Z,26.2168,-96.4998,1012.93,11111222 
TABS,ioos:station:wmo:42045:1,2017-12-05T01:30:00Z,26.2168,-96.4998,1013.41,11111222 
TABS,ioos:station:wmo:42045:1,2017-12-05T02:00:00Z,26.2168,-96.4998,1013.63,11111222 
TABS,ioos:station:wmo:42045:1,2017-12-05T02:30:00Z,26.2168,-96.4998,1012.85,11111222 
TABS,ioos:station:wmo:42045:1,2017-12-05T03:00:00Z,26.2168,-96.4998,1013.45,11111222 
TABS,ioos:station:wmo:42045:1,2017-12-05T03:30:00Z,26.2168,-96.4998,1013.84,11111222 
TABS,ioos:station:wmo:42045:1,2017-12-05T04:00:00Z,26.2168,-96.4998,1013.53,11111222 
TABS,ioos:station:wmo:42045:1,2017-12-05T04:30:00Z,26.2168,-96.4998,1014.0,11111222 
TABS,ioos:station:wmo:42045:1,2017-12-05T05:00:00Z,26.2168,-96.4998,1014.03,11111222 
TABS,ioos:station:wmo:42045:1,2017-12-05T05:30:00Z,26.2168,-96.4998,1013.83,11111222 
TABS,ioos:station:wmo:42045:1,2017-12-05T06:00:00Z,26.2168,-96.4998,1013.89,11111222 
TABS,ioos:station:wmo:42045:1,2017-12-05T06:30:00Z,26.2168,-96.4998,1013.8,11111222 
TABS,ioos:station:wmo:42045:1,2017-12-05T07:00:00Z,26.2168,-96.4998,1013.85,11111222 
TABS,ioos:station:wmo:42045:1,2017-12-05T07:30:00Z,26.2168,-96.4998,1014.03,11111222 
TABS,ioos:station:wmo:42045:1,2017-12-05T08:00:00Z,26.2168,-96.4998,1013.93,11111222 
TABS,ioos:station:wmo:42045:1,2017-12-05T08:30:00Z,26.2168,-96.4998,1014.01,11111222 
TABS,ioos:station:wmo:42045:1,2017-12-05T09:00:00Z,26.2168,-96.4998,1014.13,11111222 
TABS,ioos:station:wmo:42045:1,2017-12-05T09:30:00Z,26.2168,-96.4998,1014.12,11111222 
TABS,ioos:station:wmo:42045:1,2017-12-05T10:00:00Z,26.2168,-96.4998,1014.02,11111222 
TABS,ioos:station:wmo:42045:1,2017-12-05T10:30:00Z,26.2168,-96.4998,1014.33,11111222 
TABS,ioos:station:wmo:42045:1,2017-12-05T11:00:00Z,26.2168,-96.4998,1014.43,11111222 
TABS,ioos:station:wmo:42045:1,2017-12-05T11:30:00Z,26.2168,-96.4998,1014.59,11111222 
TABS,ioos:station:wmo:42045:1,2017-12-05T12:00:00Z,26.2168,-96.4998,1014.46,11111222 
TABS,ioos:station:wmo:42045:1,2017-12-05T12:30:00Z,26.2168,-96.4998,1014.84,11111222 
TABS,ioos:station:wmo:42045:1,2017-12-05T13:00:00Z,26.2168,-96.4998,1014.65,11111222 
TABS,ioos:station:wmo:42045:1,2017-12-05T13:30:00Z,26.2168,-96.4998,1015.68,11111222 
TABS,ioos:station:wmo:42045:1,2017-12-05T14:00:00Z,26.2168,-96.4998,1016.39,11111222 
TABS,ioos:station:wmo:42045:1,2017-12-05T14:30:00Z,26.2168,-96.4998,1016.83,11111222 
TABS,ioos:station:wmo:42045:1,2017-12-05T15:00:00Z,26.2168,-96.4998,1017.17,11111222 
TABS,ioos:station:wmo:42045:1,2017-12-05T15:30:00Z,26.2168,-96.4998,1017.26,11111222 
TABS,ioos:station:wmo:42045:1,2017-12-05T16:00:00Z,26.2168,-96.4998,1017.58,11111222 
TABS,ioos:station:wmo:42045:1,2017-12-05T16:30:00Z,26.2168,-96.4998,1017.77,11111222 
TABS,ioos:station:wmo:42045:1,2017-12-05T17:00:00Z,26.2168,-96.4998,1017.66,11111222 
TABS,ioos:station:wmo:42045:1,2017-12-05T17:30:00Z,26.2168,-96.4998,1017.37,11111222 
TABS,ioos:station:wmo:42045:1,2017-12-05T18:00:00Z,26.2168,-96.4998,1016.97,11111222 
TABS,ioos:station:wmo:42045:1,2017-12-05T18:30:00Z,26.2168,-96.4998,1016.27,11111222 
TABS,ioos:station:wmo:42045:1,2017-12-05T19:00:00Z,26.2168,-96.4998,1016.2,11111222 
TABS,ioos:station:wmo:42045:1,2017-12-05T19:30:00Z,26.2168,-96.4998,1016.01,11111222 
TABS,ioos:station:wmo:42045:1,2017-12-05T20:00:00Z,26.2168,-96.4998,1015.51,11111222 
TABS,ioos:station:wmo:42045:1,2017-12-05T20:30:00Z,26.2168,-96.4998,1015.68,11111222 
TABS,ioos:station:wmo:42045:1,2017-12-05T21:00:00Z,26.2168,-96.4998,1015.64,11111222 
TABS,ioos:station:wmo:42045:1,2017-12-05T21:30:00Z,26.2168,-96.4998,1015.39,11111222 
TABS,ioos:station:wmo:42045:1,2017-12-05T22:00:00Z,26.2168,-96.4998,1015.7,11111222 
TABS,ioos:station:wmo:42045:1,2017-12-05T22:30:00Z,26.2168,-96.4998,1015.99,11111222 
TABS,ioos:station:wmo:42045:1,2017-12-05T23:00:00Z,26.2168,-96.4998,1016.37,11111222 
TABS,ioos:station:wmo:42045:1,2017-12-05T23:30:00Z,26.2168,-96.4998,1016.73,11111222 
TABS,ioos:station:wmo:42045:1,2017-12-06T00:00:00Z,26.2168,-96.4998,1016.73,11111222 
TABS,ioos:station:wmo:42045:1,2017-12-06T00:30:00Z,26.2168,-96.4998,1017.1,11111222 
TABS,ioos:station:wmo:42045:1,2017-12-06T01:00:00Z,26.2168,-96.4998,1017.1,11111222 
TABS,ioos:station:wmo:42045:1,2017-12-06T01:30:00Z,26.2168,-96.4998,1017.22,11111222 
TABS,ioos:station:wmo:42045:1,2017-12-06T02:00:00Z,26.2168,-96.4998,1017.1,11111222 
TABS,ioos:station:wmo:42045:1,2017-12-06T02:30:00Z,26.2168,-96.4998,1017.68,11111222 
TABS,ioos:station:wmo:42045:1,2017-12-06T03:00:00Z,26.2168,-96.4998,1018.19,11111222 
TABS,ioos:station:wmo:42045:1,2017-12-06T03:30:00Z,26.2168,-96.4998,1018.22,11111222 
TABS,ioos:station:wmo:42045:1,2017-12-06T04:00:00Z,26.2168,-96.4998,1018.38,11111222 
TABS,ioos:station:wmo:42045:1,2017-12-06T04:30:00Z,26.2168,-96.4998,1018.6,11111222 
TABS,ioos:station:wmo:42045:1,2017-12-06T05:00:00Z,26.2168,-96.4998,1018.35,11111222 
TABS,ioos:station:wmo:42045:1,2017-12-06T05:30:00Z,26.2168,-96.4998,1018.19,11111222 
TABS,ioos:station:wmo:42045:1,2017-12-06T06:00:00Z,26.2168,-96.4998,1017.57,11111222 
TABS,ioos:station:wmo:42045:1,2017-12-06T06:30:00Z,26.2168,-96.4998,1017.24,11111222 
TABS,ioos:station:wmo:42045:1,2017-12-06T07:00:00Z,26.2168,-96.4998,1017.23,11111222 
TABS,ioos:station:wmo:42045:1,2017-12-06T07:30:00Z,26.2168,-96.4998,1017.5,11111222 
TABS,ioos:station:wmo:42045:1,2017-12-06T08:00:00Z,26.2168,-96.4998,1016.82,11111222 
TABS,ioos:station:wmo:42045:1,2017-12-06T08:30:00Z,26.2168,-96.4998,1016.69,11111222 
TABS,ioos:station:wmo:42045:1,2017-12-06T09:00:00Z,26.2168,-96.4998,1016.5,11111222 
TABS,ioos:station:wmo:42045:1,2017-12-06T09:30:00Z,26.2168,-96.4998,1016.9,11111222 
TABS,ioos:station:wmo:42045:1,2017-12-06T10:00:00Z,26.2168,-96.4998,1016.16,11111222 
TABS,ioos:station:wmo:42045:1,2017-12-06T10:30:00Z,26.2168,-96.4998,1016.19,11111222 
TABS,ioos:station:wmo:42045:1,2017-12-06T11:00:00Z,26.2168,-96.4998,1015.71,11111222 
TABS,ioos:station:wmo:42045:1,2017-12-06T11:30:00Z,26.2168,-96.4998,1016.39,11111222 
TABS,ioos:station:wmo:42045:1,2017-12-06T12:00:00Z,26.2168,-96.4998,1017.5,11111222 
TABS,ioos:station:wmo:42045:1,2017-12-06T12:30:00Z,26.2168,-96.4998,1017.57,11111222 
TABS,ioos:station:wmo:42045:1,2017-12-06T13:00:00Z,26.2168,-96.4998,1017.49,11111222 
TABS,ioos:station:wmo:42045:1,2017-12-06T13:30:00Z,26.2168,-96.4998,1018.62,11111222 
TABS,ioos:station:wmo:42045:1,2017-12-06T14:00:00Z,26.2168,-96.4998,1019.04,11111222 
TABS,ioos:station:wmo:42045:1,2017-12-06T14:30:00Z,26.2168,-96.4998,1019.26,11111222 
TABS,ioos:station:wmo:42045:1,2017-12-06T15:00:00Z,26.2168,-96.4998,1019.53,11111222 
TABS,ioos:station:wmo:42045:1,2017-12-06T15:30:00Z,26.2168,-96.4998,1020.17,11111222 
TABS,ioos:station:wmo:42045:1,2017-12-06T16:00:00Z,26.2168,-96.4998,1020.32,11111222 
TABS,ioos:station:wmo:42045:1,2017-12-06T16:30:00Z,26.2168,-96.4998,1020.31,11111222 
TABS,ioos:station:wmo:42045:1,2017-12-06T17:00:00Z,26.2168,-96.4998,1020.15,11111222 
TABS,ioos:station:wmo:42045:1,2017-12-06T17:30:00Z,26.2168,-96.4998,1020.43,11111222 
TABS,ioos:station:wmo:42045:1,2017-12-06T18:00:00Z,26.2168,-96.4998,1018.72,11111222 
TABS,ioos:station:wmo:42045:1,2017-12-06T18:30:00Z,26.2168,-96.4998,1019.23,11111222 